TimeEDT,TemperatureF,Dew PointF,Humidity,Sea Level PressureIn,VisibilityMPH,Wind Direction,Wind SpeedMPH,Gust SpeedMPH,PrecipitationIn,Events,Conditions,WindDirDegrees,DateUTC
12:50 AM,80.6,69.8,70,29.91,10.0,SW,9.2,-,N/A,Thunderstorm,Mostly Cloudy,220,2013-06-26 04:50:00
12:58 AM,80.1,70.0,71,29.91,10.0,WSW,10.4,-,N/A,Thunderstorm,Thunderstorm,240,2013-06-26 04:58:00
1:50 AM,80.6,69.8,70,29.91,10.0,WSW,15.0,26.5,N/A,Thunderstorm,Thunderstorm,250,2013-06-26 05:50:00
1:58 AM,79.9,69.6,71,29.90,10.0,WSW,13.8,21.9,0.00,Rain-Thunderstorm,Light Thunderstorms and Rain,250,2013-06-26 05:58:00
2:03 AM,80.6,69.8,70,29.91,10.0,WSW,13.8,-,N/A,Rain-Thunderstorm,Light Thunderstorms and Rain,250,2013-06-26 06:03:00
2:20 AM,75.2,68.0,78,29.92,10.0,NW,9.2,-,N/A,Rain-Thunderstorm,Light Thunderstorms and Rain,310,2013-06-26 06:20:00
2:34 AM,73.4,66.2,78,29.93,10.0,NW,12.7,17.3,N/A,,Overcast,320,2013-06-26 06:34:00
2:43 AM,73.4,66.2,78,29.92,10.0,NW,4.6,17.3,N/A,,Mostly Cloudy,310,2013-06-26 06:43:00
2:48 AM,73.4,66.2,78,29.91,10.0,WNW,4.6,-,N/A,Rain,Light Rain,300,2013-06-26 06:48:00
2:58 AM,72.7,66.7,82,29.92,10.0,West,6.9,-,0.01,Rain,Light Rain,260,2013-06-26 06:58:00
3:04 AM,71.6,66.2,83,29.93,10.0,WNW,4.6,-,N/A,,Mostly Cloudy,290,2013-06-26 07:04:00
3:20 AM,71.6,66.2,83,29.94,10.0,North,5.8,-,N/A,Rain,Light Rain,360,2013-06-26 07:20:00
3:40 AM,71.6,66.2,83,29.93,10.0,NNE,4.6,-,N/A,,Overcast,30,2013-06-26 07:40:00
3:58 AM,70.0,67.1,91,29.91,8.0,NW,2.3,-,0.08,,Mostly Cloudy,320,2013-06-26 07:58:00
4:18 AM,69.8,66.2,88,29.92,7.0,ENE,4.6,-,N/A,,Mostly Cloudy,60,2013-06-26 08:18:00
4:58 AM,69.3,66.2,90,29.93,8.0,SW,5.8,-,N/A,,Overcast,220,2013-06-26 08:58:00
5:43 AM,69.8,68.0,94,29.95,8.0,SW,8.1,-,N/A,Rain,Light Rain,230,2013-06-26 09:43:00
5:58 AM,70.0,66.9,90,29.94,9.0,SSW,5.8,-,0.00,Rain,Light Rain,210,2013-06-26 09:58:00
6:58 AM,68.9,66.2,91,29.90,8.0,South,3.5,-,0.01,,Mostly Cloudy,190,2013-06-26 10:58:00
7:58 AM,70.0,67.1,91,29.92,9.0,WSW,12.7,-,N/A,,Mostly Cloudy,240,2013-06-26 11:58:00
8:58 AM,72.3,65.8,80,29.91,10.0,West,5.8,-,N/A,,Mostly Cloudy,260,2013-06-26 12:58:00
9:58 AM,74.8,66.0,74,29.92,10.0,SW,9.2,-,N/A,,Overcast,220,2013-06-26 13:58:00
10:58 AM,77.5,65.3,66,29.90,10.0,SSW,11.5,-,N/A,,Overcast,210,2013-06-26 14:58:00
11:58 AM,81.0,64.8,58,29.92,10.0,WSW,9.2,-,N/A,,Mostly Cloudy,250,2013-06-26 15:58:00
12:58 PM,82.2,66.4,59,29.91,10.0,SSW,12.7,-,N/A,,Mostly Cloudy,210,2013-06-26 16:58:00
1:58 PM,82.8,67.5,60,29.89,10.0,SSW,9.2,-,N/A,,Mostly Cloudy,200,2013-06-26 17:58:00
2:58 PM,82.8,67.8,60,29.85,10.0,South,10.4,-,N/A,,Mostly Cloudy,180,2013-06-26 18:58:00
3:44 PM,82.4,68.0,62,29.85,10.0,SSE,6.9,-,N/A,Thunderstorm,Mostly Cloudy,160,2013-06-26 19:44:00
3:58 PM,82.4,69.8,66,29.83,10.0,SE,10.4,-,N/A,Rain-Thunderstorm,Light Rain,130,2013-06-26 19:58:00
4:18 PM,80.6,66.2,61,29.85,5.0,WSW,16.1,31.1,N/A,Rain-Thunderstorm,Light Thunderstorms and Rain,240,2013-06-26 20:18:00
4:58 PM,71.1,66.4,85,29.82,10.0,ENE,5.8,-,0.16,Thunderstorm,Thunderstorm,70,2013-06-26 20:58:00
5:10 PM,73.4,68.0,83,29.83,10.0,ESE,9.2,-,N/A,Thunderstorm,Mostly Cloudy,110,2013-06-26 21:10:00
5:58 PM,76.3,68.0,75,29.81,10.0,ESE,4.6,-,N/A,Thunderstorm,Overcast,120,2013-06-26 21:58:00
6:32 PM,73.4,68.0,83,29.82,10.0,SSE,3.5,-,N/A,Rain-Thunderstorm,Light Thunderstorms and Rain,160,2013-06-26 22:32:00
6:58 PM,72.7,69.4,90,29.82,10.0,SE,8.1,-,0.10,Rain-Thunderstorm,Light Thunderstorms and Rain,130,2013-06-26 22:58:00
7:27 PM,71.6,68.0,88,29.80,10.0,South,4.6,-,N/A,,Overcast,170,2013-06-26 23:27:00
7:58 PM,72.1,69.1,90,29.81,10.0,SSE,8.1,-,0.04,,Overcast,160,2013-06-26 23:58:00
8:58 PM,71.6,68.4,89,29.81,10.0,SSE,5.8,-,N/A,,Overcast,160,2013-06-27 00:58:00
9:58 PM,70.5,68.2,92,29.78,10.0,South,6.9,-,N/A,,Mostly Cloudy,170,2013-06-27 01:58:00
10:38 PM,69.8,68.0,94,29.79,10.0,South,6.9,-,N/A,,Mostly Cloudy,180,2013-06-27 02:38:00
10:58 PM,69.8,68.0,94,29.80,10.0,South,5.8,-,N/A,,Mostly Cloudy,180,2013-06-27 02:58:00
11:58 PM,70.3,68.4,93,29.80,10.0,South,6.9,-,N/A,,Mostly Cloudy,170,2013-06-27 03:58:00